Location: Alberta Star Party
(51.6612°N, 112.9089°W)
Time: 10:11:05
(UTC-06:00)

Amateur Radio Satellites - All Passes

Search period start: 24 August 2016 09:41
Search period end: 25 August 2016 09:41
Location: Alberta Star Party, 51.6612°N, 112.9089°W

Satellite Date Start Highest point End Downlink Frequencies (MHz)
Time Altitude Azimuth
Cosmos 2504 24 Aug 09:42:07 09:50:31 65° 285° (WNW) 09:58:21 435.465 / 435.565
SO-50 24 Aug 09:42:44 09:47:25 78° 229° (SW) 09:51:56 436.795
CUTE-I 24 Aug 09:46:57 09:50:59 22° 304° (NW) 09:54:59 437.470
CUSAT 1 24 Aug 09:48:23 09:52:22 20° 61° (ENE) 09:56:59 437.405
CANX-2 24 Aug 09:49:31 09:53:46 79° 285° (WNW) 09:58:00 2200.000
NOAA 18 24 Aug 09:53:40 09:57:57 24° 305° (NW) 10:02:14 137.9125
CUTE 1.7 + AOD 2 24 Aug 09:56:26 10:00:40 77° 287° (WNW) 10:04:54 437.475
UNISAT 6 24 Aug 09:58:12 10:02:19 33° 65° (ENE) 10:06:22 437.425
NOAA 15 24 Aug 10:01:51 10:04:51 16° 310° (NW) 10:07:53 137.62
DOVE 4 24 Aug 10:02:43 10:06:56 25° 301° (WNW) 10:11:01 437.250
AO-85 24 Aug 10:16:35 10:20:37 23° 337° (NNW) 10:24:26 145.980
AAUSAT CUBESAT 2 24 Aug 10:18:36 10:22:47 78° 104° (ESE) 10:26:57 437.432
AIST 1 24 Aug 10:18:39 10:22:43 40° 92° (E) 10:26:50
CUBEBUG 2 24 Aug 10:18:42 10:23:04 72° 103° (ESE) 10:27:16 437.445
PRISM 24 Aug 10:21:01 10:24:15 22° 267° (W) 10:27:30 437.425
COMPASS 1 24 Aug 10:22:45 10:26:56 79° 285° (WNW) 10:31:06 437.405
UWE-3 24 Aug 10:24:40 10:28:53 57° 100° (E) 10:32:59 435.000/436.395/437.385
QB50P2 24 Aug 10:24:59 10:26:58 13° 54° (NE) 10:28:56 145.880/145.840
Oscar 11 24 Aug 10:26:44 10:30:49 40° 97° (E) 10:34:54 145.826/435.025
POLYITAN 1 24 Aug 10:27:28 10:29:29 13° 55° (NE) 10:31:30 437.675
DUCHIFAT 1 24 Aug 10:28:26 10:30:02 12° 54° (NE) 10:31:38 145.980
FUNcube-1 24 Aug 10:28:56 10:32:54 39° 97° (E) 10:36:47 145.935
HUMSAT D 24 Aug 10:34:21 10:35:55 12° 87° (E) 10:37:27 437.325/437.525
ANTELSAT 24 Aug 10:34:46 10:39:21 67° 72° (ENE) 10:43:52 437.575/2403.000
NANOSAT C BR1 24 Aug 10:39:13 10:41:43 15° 57° (ENE) 10:44:14 145.865
AO-7 24 Aug 10:42:06 10:42:49 10° 354° (N) 10:43:32 29.400- 29.500
ZACube-1 24 Aug 10:48:05 10:52:18 64° 102° (ESE) 10:56:24 437.345
RS-15 24 Aug 10:50:20 11:02:46 79° 44° (NE) 11:15:07 29.354- 29.394
DELFI C3 24 Aug 10:55:26 10:59:07 35° 97° (E) 11:02:49 145.870
YUBILEINY 24 Aug 10:58:13 11:03:27 17° 317° (NW) 11:08:43 435.215
HO-68 24 Aug 11:06:15 11:12:59 45° 301° (WNW) 11:19:40 435.675
TIGRISAT 24 Aug 11:06:53 11:11:29 68° 258° (WSW) 11:16:02 435.000
SEEDS 24 Aug 11:12:25 11:15:39 22° 298° (WNW) 11:18:53 437.485
CINEMA 3 24 Aug 11:12:34 11:15:34 17° 305° (NW) 11:18:30 145.822/145.860
GONETS M04 24 Aug 11:18:12 11:22:57 16° 69° (ENE) 11:27:43
QB50P1 24 Aug 11:19:15 11:23:07 34° 66° (ENE) 11:27:00 145.935-145.965
BEESAT 3 24 Aug 11:21:50 11:25:02 25° 118° (ESE) 11:28:17 437.485
SO-50 24 Aug 11:24:50 11:27:06 14° 250° (WSW) 11:29:21 436.795
JAS-2 24 Aug 11:26:13 11:30:30 26° 56° (ENE) 11:35:02 435.910
CANX-2 24 Aug 11:27:10 11:28:56 12° 305° (NW) 11:30:42 2200.000
POPSAT HIP 1 24 Aug 11:28:42 11:32:43 40° 67° (ENE) 11:36:44 437.405
CUSAT 1 24 Aug 11:29:19 11:34:55 84° 79° (E) 11:42:03 437.405
ISS 24 Aug 11:29:30 11:32:09 23° 146° (SSE) 11:34:49 145.825
CUTE 1.7 + AOD 2 24 Aug 11:34:09 11:35:49 12° 305° (NW) 11:37:29 437.475
UNISAT 6 24 Aug 11:34:43 11:39:00 36° 263° (W) 11:43:13 437.425
BUGSAT 1 24 Aug 11:37:31 11:40:53 23° 62° (ENE) 11:44:17 437.445
Cosmos 2504 24 Aug 11:40:14 11:45:36 18° 309° (NW) 11:50:46 435.465 / 435.565
ESTCUBE 1 24 Aug 11:48:09 11:50:34 14° 87° (E) 11:53:00 437.505/2401.250
DANDE 24 Aug 11:50:02 11:54:25 52° 74° (ENE) 12:00:17 436.750
AAUSAT CUBESAT 2 24 Aug 11:55:18 11:57:45 15° 302° (WNW) 12:00:12 437.432
CUBEBUG 2 24 Aug 11:56:22 11:59:11 17° 303° (WNW) 12:01:58 437.445
AIST 1 24 Aug 11:56:48 12:00:28 26° 293° (WNW) 12:04:11
QB50P2 24 Aug 11:57:47 12:02:05 80° 72° (ENE) 12:06:23 145.880/145.840
AO-85 24 Aug 11:59:37 12:02:39 16° 1° (N) 12:05:32 145.980
COMPASS 1 24 Aug 12:00:08 12:01:48 12° 305° (NW) 12:03:29 437.405
POLYITAN 1 24 Aug 12:00:19 12:04:37 81° 73° (ENE) 12:08:56 437.675
DUCHIFAT 1 24 Aug 12:00:44 12:04:59 73° 74° (ENE) 12:09:15 145.980
UWE-3 24 Aug 12:01:52 12:04:59 20° 300° (WNW) 12:08:04 435.000/436.395/437.385
Oscar 11 24 Aug 12:03:11 12:06:50 27° 296° (WNW) 12:10:28 145.826/435.025
FUNcube-1 24 Aug 12:05:29 12:09:01 26° 297° (WNW) 12:12:29 145.935
HUMSAT D 24 Aug 12:08:02 12:12:09 84° 282° (WNW) 12:16:13 437.325/437.525
AISAT 24 Aug 12:12:24 12:14:46 14° 87° (E) 12:17:08 437.250
NANOSAT C BR1 24 Aug 12:12:38 12:16:54 82° 256° (WSW) 12:21:12 145.865
ANTELSAT 24 Aug 12:13:21 12:16:30 18° 271° (W) 12:19:38 437.575/2403.000
ZACube-1 24 Aug 12:25:18 12:28:09 18° 301° (WNW) 12:30:59 437.345
AO-7 24 Aug 12:28:23 12:32:03 14° 22° (NNE) 12:35:42 29.400- 29.500
DELFI C3 24 Aug 12:30:29 12:33:53 27° 295° (WNW) 12:37:16 145.870
BEESAT 2 24 Aug 12:32:36 12:36:30 60° 127° (SE) 12:40:27 435.950
UKube-1 24 Aug 12:42:06 12:44:24 14° 88° (E) 12:46:41 .
50 SAT 24 Aug 12:49:57 12:53:03 26° 95° (E) 12:56:08 437.505
AUBIESAT-1 24 Aug 12:52:20 12:56:35 56° 106° (ESE) 13:00:31 437.475
M-CUBED/EXP-1 PRIME 24 Aug 12:54:37 12:59:01 71° 108° (ESE) 13:03:05 437.505
Oscar 19 24 Aug 12:55:00 12:59:32 32° 61° (ENE) 13:04:07 437.125/150
QB50P1 24 Aug 12:55:04 12:58:54 32° 264° (W) 13:02:46 145.935-145.965
HO-68 24 Aug 12:55:30 12:59:01 14° 324° (NW) 13:02:29 435.675
Cosmos 2499 24 Aug 12:58:31 13:06:06 45° 89° (E) 13:13:10 435.465 / 435.565
BEESAT 3 24 Aug 12:58:38 13:02:29 51° 318° (NW) 13:06:22 437.485
VELOX 1 24 Aug 12:58:58 13:03:04 34° 96° (E) 13:07:09 145.980
RS-15 24 Aug 13:03:21 13:14:30 43° 250° (WSW) 13:25:32 29.354- 29.394
ISS 24 Aug 13:05:00 13:08:17 70° 165° (SSE) 13:11:34 145.825
POPSAT HIP 1 24 Aug 13:05:00 13:08:38 26° 266° (W) 13:12:17 437.405
PCSat 24 Aug 13:07:38 13:12:11 28° 112° (ESE) 13:16:45 145.827
GONETS M04 24 Aug 13:09:20 13:17:56 64° 92° (E) 13:26:37
JAS-2 24 Aug 13:10:07 13:15:15 59° 259° (W) 13:20:44 435.910
CUBEBUG 1 24 Aug 13:10:52 13:15:15 53° 100° (E) 13:19:34 437.445
BUGSAT 1 24 Aug 13:11:53 13:16:00 49° 260° (W) 13:20:10 437.445
CUSAT 1 24 Aug 13:12:19 13:16:35 21° 272° (W) 13:21:32 437.405
ESTCUBE 1 24 Aug 13:23:26 13:28:00 84° 285° (WNW) 13:32:33 437.505/2401.250
DX 1 24 Aug 13:29:01 13:33:17 45° 100° (E) 13:37:29 434.975-435.025
DANDE 24 Aug 13:33:13 13:37:06 26° 267° (W) 13:41:55 436.750
Gurwin Techsat 1B 24 Aug 13:35:13 13:39:59 35° 62° (ENE) 13:44:47 435.225
QB50P2 24 Aug 13:36:16 13:38:28 14° 273° (W) 13:40:39 145.880/145.840
DUCHIFAT 1 24 Aug 13:38:44 13:41:11 15° 272° (W) 13:43:40 145.980
POLYITAN 1 24 Aug 13:38:51 13:41:00 14° 273° (W) 13:43:10 437.675
AO-85 24 Aug 13:40:45 13:44:37 25° 26° (NNE) 13:48:13 145.980
HUMSAT D 24 Aug 13:45:23 13:47:08 13° 305° (NW) 13:48:52 437.325/437.525
SPROUT 24 Aug 13:46:06 13:50:20 53° 100° (E) 13:54:31 437.525
AISAT 24 Aug 13:47:21 13:51:52 83° 286° (WNW) 13:56:20 437.250
NANOSAT C BR1 24 Aug 13:52:14 13:53:21 11° 275° (W) 13:54:27 145.865
ITAMSAT 1 24 Aug 14:01:45 14:05:43 23° 56° (NE) 14:09:40 435.822/435.867
BEESAT 2 24 Aug 14:11:09 14:14:37 28° 328° (NNW) 14:18:07 435.950
AIST 2 24 Aug 14:12:44 14:16:26 33° 121° (ESE) 14:20:12 435.215
AO-7 24 Aug 14:15:13 14:22:22 33° 48° (NE) 14:29:31 29.400- 29.500
UKube-1 24 Aug 14:16:39 14:21:02 80° 285° (WNW) 14:25:22 .
TISAT 1 24 Aug 14:19:01 14:22:43 29° 95° (E) 14:26:23 437.305
50 SAT 24 Aug 14:23:26 14:26:39 30° 294° (WNW) 14:29:53 437.505
AUBIESAT-1 24 Aug 14:27:20 14:30:41 22° 307° (NW) 14:33:52 437.475
M-CUBED/EXP-1 PRIME 24 Aug 14:29:53 14:33:02 19° 310° (NW) 14:36:02 437.505
Oscar 19 24 Aug 14:33:45 14:38:43 47° 261° (W) 14:43:45 437.125/150
VELOX 1 24 Aug 14:35:29 14:39:32 34° 295° (WNW) 14:43:32 145.980
BEESAT 3 24 Aug 14:38:23 14:41:00 17° 340° (NNW) 14:43:39 437.485
ISS 24 Aug 14:41:27 14:44:45 89° 185° (S) 14:48:03 145.825
ITUPSAT 1 24 Aug 14:44:05 14:46:13 13° 86° (E) 14:48:20 437.325
CUBEBUG 1 24 Aug 14:47:44 14:51:14 23° 299° (WNW) 14:54:43 437.445
PCSat 24 Aug 14:49:51 14:55:14 64° 312° (NW) 15:00:40 145.827
Cosmos 2499 24 Aug 14:51:23 14:59:12 49° 289° (WNW) 15:06:30 435.465 / 435.565
ESTCUBE 1 24 Aug 15:01:40 15:04:09 15° 306° (NW) 15:06:37 437.505/2401.250
DX 1 24 Aug 15:05:37 15:09:16 26° 299° (WNW) 15:12:53 434.975-435.025
GONETS M04 24 Aug 15:07:18 15:15:20 39° 297° (WNW) 15:23:29
Gurwin Techsat 1B 24 Aug 15:14:48 15:19:52 44° 262° (W) 15:24:58 435.225
SWISSCUBE 24 Aug 15:17:49 15:21:54 28° 94° (E) 15:25:58 437.505
AO-85 24 Aug 15:21:09 15:25:38 85° 230° (SW) 15:29:44 145.980
SPROUT 24 Aug 15:22:41 15:25:59 22° 299° (WNW) 15:29:16 437.525
AISAT 24 Aug 15:25:16 15:27:40 14° 306° (NW) 15:30:03 437.250
O/OREOS (USA 219) 24 Aug 15:35:00 15:39:19 49° 111° (ESE) 15:43:42 437.305
BEESAT 24 Aug 15:35:12 15:39:35 35° 97° (E) 15:43:57 436.000
ITAMSAT 1 24 Aug 15:39:32 15:44:43 72° 256° (WSW) 15:49:56 435.822/435.867
AIST 2 24 Aug 15:50:55 15:54:52 43° 321° (NW) 15:58:51 435.215
BEESAT 2 24 Aug 15:51:40 15:53:41 13° 351° (N) 15:55:43 435.950
UKube-1 24 Aug 15:54:17 15:56:23 13° 306° (NW) 15:58:29 .
TISAT 1 24 Aug 15:54:33 15:58:26 36° 294° (WNW) 16:02:17 437.305
AO-7 24 Aug 16:06:02 16:14:26 83° 250° (WSW) 16:22:52 29.400- 29.500
ISS 24 Aug 16:17:58 16:21:06 41° 205° (SSW) 16:24:13 145.825
BEESAT 3 24 Aug 16:18:25 16:20:12 12° 4° (N) 16:21:58 437.485
ITUPSAT 1 24 Aug 16:20:01 16:24:49 83° 105° (ESE) 16:29:36 437.325
MOZHAYETS 4 24 Aug 16:21:17 16:24:28 18° 89° (E) 16:27:39
NOAA 18 24 Aug 16:28:51 16:29:55 11° 42° (NE) 16:30:58 137.9125
NOAA 15 24 Aug 16:30:58 16:33:06 12° 47° (NE) 16:35:13 137.62
PCSat 24 Aug 16:35:26 16:39:40 22° 336° (NNW) 16:43:56 145.827
KKS-1 24 Aug 16:41:32 16:44:59 21° 92° (E) 16:48:25 437.445
Cosmos 2499 24 Aug 16:50:58 16:54:29 13° 315° (NW) 16:57:53 435.465 / 435.565
SWISSCUBE 24 Aug 16:55:20 16:59:54 46° 293° (WNW) 17:04:25 437.505
YUBILEINY 24 Aug 17:01:58 17:09:36 31° 59° (ENE) 17:17:09 435.215
AO-85 24 Aug 17:03:16 17:05:16 13° 251° (WSW) 17:07:12 145.980
HORYU 2 24 Aug 17:06:43 17:11:04 53° 69° (ENE) 17:15:25 437.375
GONETS M04 24 Aug 17:12:28 17:15:33 12° 326° (NW) 17:18:39
BEESAT 24 Aug 17:13:02 17:17:24 36° 296° (WNW) 17:21:44 436.000
O/OREOS (USA 219) 24 Aug 17:15:02 17:18:58 28° 312° (NW) 17:22:56 437.305
ITAMSAT 1 24 Aug 17:23:09 17:25:08 12° 276° (W) 17:27:08 435.822/435.867
STARS 24 Aug 17:27:00 17:30:53 29° 95° (E) 17:34:44 437.465
BEESAT 2 24 Aug 17:30:42 17:33:04 15° 15° (NNE) 17:35:27 435.950
AIST 2 24 Aug 17:31:41 17:34:21 16° 344° (NNW) 17:37:03 435.215
CUBESAT XI-V 24 Aug 17:32:03 17:34:35 14° 86° (E) 17:37:06 437.345
GOMX 1 24 Aug 17:33:45 17:37:50 24° 58° (ENE) 17:42:04 467.674
Cosmos 2504 24 Aug 17:35:53 17:40:33 17° 49° (NE) 17:45:07 435.465 / 435.565
BRITE-PL 24 Aug 17:38:41 17:43:18 44° 66° (ENE) 17:48:17 437.365/2234.400
Cubesat XI-IV 24 Aug 17:41:29 17:46:04 30° 60° (ENE) 17:50:41 437.490
LilacSat-2 24 Aug 17:44:58 17:47:55 21° 63° (ENE) 17:50:50 437.200
CUTE-I 24 Aug 17:54:10 17:59:01 37° 63° (ENE) 18:03:53 437.470
BEESAT 3 24 Aug 17:56:03 17:59:13 22° 28° (NNE) 18:02:23 437.485
ISS 24 Aug 17:56:12 17:56:54 10° 223° (SW) 17:57:35 145.825
MOZHAYETS 4 24 Aug 17:57:32 18:02:05 65° 289° (WNW) 18:06:36
DOVE 4 24 Aug 17:58:39 18:02:28 21° 57° (ENE) 18:06:22 437.250
ITUPSAT 1 24 Aug 17:58:55 18:02:05 18° 305° (NW) 18:05:15 437.325
AO-7 24 Aug 18:02:18 18:08:29 22° 272° (W) 18:14:42 29.400- 29.500
NOAA 18 24 Aug 18:04:05 18:09:16 43° 63° (ENE) 18:14:28 137.9125
NOAA 15 24 Aug 18:06:42 18:11:49 55° 68° (ENE) 18:16:59 137.62
HO-68 24 Aug 18:07:59 18:12:47 20° 43° (NE) 18:17:34 435.675
KKS-1 24 Aug 18:17:29 18:21:53 54° 291° (WNW) 18:26:14 437.445
PCSat 24 Aug 18:21:48 18:25:05 16° 2° (N) 18:28:22 145.827
HORYU 2 24 Aug 18:44:28 18:47:56 22° 268° (W) 18:51:24 437.375
Cosmos 2491 24 Aug 18:45:04 18:53:03 42° 85° (E) 19:01:05 435.465 / 435.565
YUBILEINY 24 Aug 18:58:37 19:07:27 79° 263° (W) 19:16:09 435.215
SEEDS 24 Aug 19:00:50 19:01:55 11° 54° (NE) 19:03:01 437.485
STARS 24 Aug 19:03:13 19:07:20 38° 294° (WNW) 19:11:24 437.465
CINEMA 3 24 Aug 19:04:39 19:08:38 24° 60° (ENE) 19:12:34 145.822/145.860
CUBESAT XI-V 24 Aug 19:07:54 19:12:38 87° 280° (W) 19:17:21 437.345
BEESAT 2 24 Aug 19:08:09 19:11:56 38° 38° (NE) 19:15:43 435.950
GOMX 1 24 Aug 19:10:22 19:15:25 68° 259° (W) 19:20:48 467.674
AIST 2 24 Aug 19:12:09 19:14:25 14° 8° (N) 19:16:42 435.215
CANX-2 24 Aug 19:12:51 19:15:57 20° 60° (ENE) 19:19:02 2200.000
BRITE-PL 24 Aug 19:17:39 19:21:57 31° 268° (W) 19:26:36 437.365/2234.400
LilacSat-2 24 Aug 19:18:16 19:21:59 44° 261° (W) 19:25:41 437.200
CUTE 1.7 + AOD 2 24 Aug 19:19:37 19:22:45 21° 61° (ENE) 19:25:53 437.475
Cubesat XI-IV 24 Aug 19:20:43 19:25:56 53° 260° (W) 19:31:11 437.490
Cosmos 2504 24 Aug 19:28:17 19:35:41 67° 76° (ENE) 19:42:48 435.465 / 435.565
BEESAT 3 24 Aug 19:33:24 19:37:25 89° 236° (SW) 19:41:23 437.485
CUTE-I 24 Aug 19:34:00 19:39:03 42° 262° (W) 19:44:06 437.470
DOVE 4 24 Aug 19:34:22 19:39:33 81° 256° (WSW) 19:44:55 437.250
MOZHAYETS 4 24 Aug 19:36:47 19:38:25 12° 308° (NW) 19:40:03
AAUSAT CUBESAT 2 24 Aug 19:40:36 19:42:54 15° 57° (ENE) 19:45:13 437.432
COMPASS 1 24 Aug 19:44:26 19:47:21 19° 60° (ENE) 19:50:17 437.405
NOAA 18 24 Aug 19:44:52 19:50:00 38° 263° (W) 19:55:09 137.9125
CUBEBUG 2 24 Aug 19:46:41 19:49:55 19° 58° (ENE) 19:53:05 437.445
NOAA 15 24 Aug 19:47:32 19:51:56 27° 267° (W) 19:56:22 137.62
HO-68 24 Aug 19:52:11 19:59:16 64° 65° (ENE) 20:06:22 435.675
UWE-3 24 Aug 19:52:23 19:54:58 15° 56° (ENE) 19:57:31 435.000/436.395/437.385
Oscar 11 24 Aug 19:54:37 19:55:19 10° 52° (NE) 19:56:01 145.826/435.025
FUNcube-1 24 Aug 19:57:06 19:58:03 11° 53° (NE) 19:58:58 145.935
PCSat 24 Aug 20:05:58 20:10:25 25° 28° (NNE) 20:14:52 145.827
ZACube-1 24 Aug 20:14:39 20:17:19 16° 57° (ENE) 20:19:57 437.345
AIST 1 24 Aug 20:20:12 20:23:31 20° 64° (ENE) 20:26:50
SEEDS 24 Aug 20:32:44 20:36:52 69° 73° (ENE) 20:41:01 437.485
CINEMA 3 24 Aug 20:40:24 20:45:23 63° 259° (W) 20:50:21 145.822/145.860
Cosmos 2491 24 Aug 20:41:10 20:49:42 56° 289° (WNW) 20:58:21 435.465 / 435.565
STRAND 1 24 Aug 20:42:30 20:47:29 51° 100° (E) 20:52:27 437.568
BEESAT 2 24 Aug 20:46:04 20:49:47 37° 238° (WSW) 20:53:29 435.950
CUBESAT XI-V 24 Aug 20:46:36 20:49:21 16° 305° (NW) 20:52:07 437.345
CANX-2 24 Aug 20:47:20 20:51:28 56° 260° (W) 20:55:38 2200.000
AIST 2 24 Aug 20:50:33 20:54:12 28° 32° (NNE) 20:57:50 435.215
GOMX 1 24 Aug 20:52:49 20:54:36 12° 280° (W) 20:56:24 467.674
CUTE 1.7 + AOD 2 24 Aug 20:54:09 20:58:17 54° 260° (W) 21:02:25 437.475
YUBILEINY 24 Aug 20:56:51 21:02:49 21° 287° (WNW) 21:08:46 435.215
BEESAT 3 24 Aug 21:12:31 21:14:29 13° 248° (WSW) 21:16:26 437.485
AAUSAT CUBESAT 2 24 Aug 21:13:44 21:17:51 81° 258° (WSW) 21:22:00 437.432
DOVE 4 24 Aug 21:15:21 21:18:06 14° 277° (W) 21:20:54 437.250
GONETS M04 24 Aug 21:17:04 21:21:11 14° 38° (NE) 21:25:16
COMPASS 1 24 Aug 21:18:29 21:22:33 58° 259° (W) 21:26:39 437.405
CUBEBUG 2 24 Aug 21:21:22 21:26:04 74° 256° (WSW) 21:30:41 437.445
Cosmos 2504 24 Aug 21:22:24 21:28:27 29° 279° (W) 21:34:21 435.465 / 435.565
UWE-3 24 Aug 21:26:14 21:30:50 88° 70° (ENE) 21:35:21 435.000/436.395/437.385
Oscar 11 24 Aug 21:26:22 21:30:37 61° 71° (ENE) 21:34:53 145.826/435.025
FUNcube-1 24 Aug 21:29:04 21:33:28 61° 72° (ENE) 21:37:47 145.935
HUMSAT D 24 Aug 21:30:12 21:33:05 19° 60° (ENE) 21:35:57 437.325/437.525
HO-68 24 Aug 21:41:03 21:47:27 34° 266° (W) 21:53:52 435.675
DELFI C3 24 Aug 21:46:15 21:49:58 42° 69° (ENE) 21:53:43 145.870
ZACube-1 24 Aug 21:48:34 21:53:04 84° 256° (WSW) 21:57:29 437.345
PCSat 24 Aug 21:49:12 21:54:41 77° 51° (NE) 22:00:07 145.827
PRISM 24 Aug 21:56:01 21:59:51 34° 97° (E) 22:03:40 437.425
AIST 1 24 Aug 21:57:09 22:01:30 55° 265° (W) 22:05:48
AUBIESAT-1 24 Aug 22:08:53 22:12:50 28° 56° (NE) 22:16:45 437.475
SEEDS 24 Aug 22:10:38 22:13:03 15° 272° (W) 22:15:29 437.485
M-CUBED/EXP-1 PRIME 24 Aug 22:11:16 22:15:29 34° 58° (ENE) 22:19:43 437.505
STRAND 1 24 Aug 22:22:06 22:26:28 29° 300° (WNW) 22:30:49 437.568
O/OREOS (USA 219) 24 Aug 22:22:42 22:23:51 11° 29° (NNE) 22:25:00 437.305
CINEMA 3 24 Aug 22:23:01 22:23:29 10° 278° (W) 22:23:57 145.822/145.860
AIST 2 24 Aug 22:28:51 22:33:01 65° 232° (SW) 22:37:10 435.215
VELOX 1 24 Aug 22:28:54 22:29:54 11° 50° (NE) 22:30:55 145.980
CUBEBUG 1 24 Aug 22:38:09 22:40:30 14° 54° (NE) 22:42:51 437.445
Cosmos 2499 24 Aug 22:42:59 22:48:18 22° 55° (NE) 22:53:31 435.465 / 435.565
Cosmos 2491 24 Aug 22:43:39 22:48:59 17° 316° (NW) 22:54:22 435.465 / 435.565
ESTCUBE 1 24 Aug 22:52:21 22:56:01 25° 61° (ENE) 22:59:43 437.505/2401.250
TIGRISAT 24 Aug 22:53:59 22:56:50 17° 89° (E) 22:59:39 435.000
DX 1 24 Aug 22:56:11 22:58:18 13° 53° (NE) 23:00:23 434.975-435.025
CUBEBUG 2 24 Aug 23:02:09 23:03:27 11° 276° (W) 23:04:46 437.445
HUMSAT D 24 Aug 23:04:12 23:08:20 61° 258° (WSW) 23:12:27 437.325/437.525
Oscar 11 24 Aug 23:04:14 23:07:09 18° 270° (W) 23:10:07 145.826/435.025
UWE-3 24 Aug 23:05:39 23:07:54 13° 273° (W) 23:10:09 435.000/436.395/437.385
FUNcube-1 24 Aug 23:06:59 23:10:06 18° 270° (W) 23:13:11 145.935
SPROUT 24 Aug 23:11:30 23:13:32 13° 54° (NE) 23:15:33 437.525
GONETS M04 24 Aug 23:12:39 23:21:04 44° 66° (ENE) 23:29:25
AISAT 24 Aug 23:14:19 23:17:58 25° 61° (ENE) 23:21:38 437.250
UNISAT 6 24 Aug 23:20:49 23:24:42 31° 95° (E) 23:28:31 437.425
DELFI C3 24 Aug 23:21:57 23:25:01 21° 268° (W) 23:28:06 145.870
ZACube-1 24 Aug 23:28:25 23:30:01 12° 274° (W) 23:31:38 437.345
PRISM 24 Aug 23:31:26 23:35:07 30° 295° (WNW) 23:38:48 437.425
50 SAT 24 Aug 23:32:20 23:35:23 27° 66° (ENE) 23:38:28 437.505
PCSat 24 Aug 23:33:23 23:37:33 23° 251° (WSW) 23:41:41 145.827
UKube-1 24 Aug 23:41:11 23:44:42 25° 61° (ENE) 23:48:14 .
AUBIESAT-1 24 Aug 23:42:31 23:47:02 52° 254° (WSW) 23:51:35 437.475
M-CUBED/EXP-1 PRIME 24 Aug 23:45:26 23:49:53 42° 257° (WSW) 23:54:23 437.505
NANOSAT C BR1 24 Aug 23:53:45 23:55:05 11° 86° (E) 23:56:26 145.865
ANTELSAT 24 Aug 23:57:42 00:02:03 69° 103° (ESE) 00:06:18 437.575/2403.000
O/OREOS (USA 219) 25 Aug 00:00:17 00:04:36 39° 52° (NE) 00:08:55 437.305
VELOX 1 25 Aug 00:01:07 00:05:29 59° 70° (ENE) 00:09:54 145.980
CUBEBUG 1 25 Aug 00:11:42 00:16:06 85° 78° (ENE) 00:20:34 437.445
JAS-2 25 Aug 00:12:35 00:16:44 17° 86° (E) 00:21:07 435.910
ESTCUBE 1 25 Aug 00:28:16 00:32:36 48° 260° (W) 00:36:59 437.505/2401.250
DX 1 25 Aug 00:29:24 00:33:46 79° 73° (ENE) 00:38:11 434.975-435.025
TIGRISAT 25 Aug 00:29:41 00:34:00 63° 288° (WNW) 00:38:13 435.000
QB50P1 25 Aug 00:34:03 00:37:46 28° 95° (E) 00:41:26 145.935-145.965
Cosmos 2499 25 Aug 00:35:25 00:42:38 87° 80° (E) 00:49:43 435.465 / 435.565
CUSAT 1 25 Aug 00:40:09 00:42:57 43° 95° (E) 00:46:24 437.405
POPSAT HIP 1 25 Aug 00:43:38 00:47:32 34° 96° (E) 00:51:23 437.405
SPROUT 25 Aug 00:44:28 00:48:48 80° 72° (ENE) 00:53:08 437.525
BUGSAT 1 25 Aug 00:49:05 00:51:54 17° 90° (E) 00:54:39 437.445
AISAT 25 Aug 00:49:53 00:54:12 48° 260° (W) 00:58:34 437.250
SWISSCUBE 25 Aug 00:55:31 00:57:01 11° 49° (NE) 00:58:32 437.505
UNISAT 6 25 Aug 00:57:31 01:01:28 34° 295° (WNW) 01:05:21 437.425
50 SAT 25 Aug 01:05:48 01:08:56 28° 264° (W) 01:12:07 437.505
DANDE 25 Aug 01:07:39 01:09:43 21° 92° (E) 01:11:54 436.750
GONETS M04 25 Aug 01:09:38 01:18:12 56° 270° (W) 01:26:44
BEESAT 25 Aug 01:11:54 01:14:21 14° 52° (NE) 01:16:49 436.000
QB50P2 25 Aug 01:13:01 01:17:17 71° 103° (ESE) 01:21:29 145.880/145.840
DUCHIFAT 1 25 Aug 01:15:03 01:19:16 63° 102° (ESE) 01:23:25 145.980
TISAT 1 25 Aug 01:15:26 01:19:27 44° 68° (ENE) 01:23:31 437.305
POLYITAN 1 25 Aug 01:15:35 01:19:49 72° 103° (ESE) 01:24:01 437.675
UKube-1 25 Aug 01:16:20 01:20:31 47° 260° (W) 01:24:44 .
RS-15 25 Aug 01:23:28 01:32:08 25° 99° (E) 01:41:05 29.354- 29.394
NANOSAT C BR1 25 Aug 01:27:15 01:31:31 87° 105° (ESE) 01:35:44 145.865
ANTELSAT 25 Aug 01:35:22 01:38:18 18° 302° (WNW) 01:41:12 437.575/2403.000
VELOX 1 25 Aug 01:39:06 01:42:19 20° 269° (W) 01:45:35 145.980
O/OREOS (USA 219) 25 Aug 01:39:50 01:43:59 34° 252° (WSW) 01:48:06 437.305
SO-50 25 Aug 01:41:26 01:46:09 53° 125° (SE) 01:50:50 436.795
CUBEBUG 1 25 Aug 01:50:50 01:53:02 13° 273° (W) 01:55:14 437.445
ITUPSAT 1 25 Aug 01:55:10 01:59:13 28° 61° (ENE) 02:03:17 437.325
JAS-2 25 Aug 01:56:13 02:02:40 75° 104° (ESE) 02:09:56 435.910
DX 1 25 Aug 02:08:07 02:10:33 14° 272° (W) 02:12:58 434.975-435.025
TIGRISAT 25 Aug 02:08:51 02:09:50 11° 309° (NW) 02:10:50 435.000
QB50P1 25 Aug 02:09:43 02:13:37 36° 294° (WNW) 02:17:29 145.935-145.965
POPSAT HIP 1 25 Aug 02:19:32 02:23:17 31° 295° (WNW) 02:26:59 437.405
SPROUT 25 Aug 02:23:03 02:25:19 14° 273° (W) 02:27:35 437.525
BUGSAT 1 25 Aug 02:23:31 02:27:40 60° 289° (WNW) 02:31:44 437.445
CUSAT 1 25 Aug 02:23:45 02:25:31 14° 305° (NW) 02:27:29 437.405
SWISSCUBE 25 Aug 02:29:13 02:33:52 58° 69° (ENE) 02:38:33 437.505
Cosmos 2499 25 Aug 02:29:47 02:34:46 21° 282° (WNW) 02:39:43 435.465 / 435.565
Oscar 19 25 Aug 02:39:28 02:44:26 42° 98° (E) 02:49:21 437.125/150
BEESAT 25 Aug 02:46:37 02:51:22 74° 71° (ENE) 02:56:09 436.000
QB50P2 25 Aug 02:49:51 02:52:37 17° 302° (WNW) 02:55:23 145.880/145.840
DANDE 25 Aug 02:50:55 02:52:33 15° 298° (WNW) 02:54:17 436.750
DUCHIFAT 1 25 Aug 02:51:36 02:54:33 19° 301° (WNW) 02:57:29 145.980
TISAT 1 25 Aug 02:51:49 02:55:18 24° 267° (W) 02:58:49 437.305
POLYITAN 1 25 Aug 02:52:24 02:55:08 17° 302° (WNW) 02:57:52 437.675
NANOSAT C BR1 25 Aug 03:04:21 03:06:39 14° 304° (NW) 03:08:57 145.865
GONETS M04 25 Aug 03:09:08 03:12:56 14° 293° (WNW) 03:16:46
SO-50 25 Aug 03:22:18 03:26:50 38° 326° (NW) 03:31:18 436.795
Gurwin Techsat 1B 25 Aug 03:25:01 03:30:12 50° 100° (E) 03:35:21 435.225
MOZHAYETS 4 25 Aug 03:28:00 03:32:03 32° 65° (ENE) 03:36:07
RS-15 25 Aug 03:30:56 03:42:33 77° 125° (SE) 03:54:47 29.354- 29.394
ITUPSAT 1 25 Aug 03:32:17 03:36:53 47° 261° (W) 03:41:30 437.325
JAS-2 25 Aug 03:42:01 03:47:19 29° 302° (WNW) 03:53:08 435.910
KKS-1 25 Aug 03:44:20 03:48:29 38° 66° (ENE) 03:52:40 437.445
ITAMSAT 1 25 Aug 03:47:10 03:51:32 27° 93° (E) 03:55:53 435.822/435.867
AO-7 25 Aug 04:02:13 04:08:41 24° 89° (E) 04:15:06 29.400- 29.500
SWISSCUBE 25 Aug 04:08:22 04:12:03 22° 269° (W) 04:15:44 437.505
Oscar 19 25 Aug 04:18:58 04:23:42 36° 297° (WNW) 04:28:24 437.125/150
BEESAT 25 Aug 04:26:34 04:29:42 17° 271° (W) 04:32:51 436.000
STARS 25 Aug 04:28:24 04:32:42 51° 69° (ENE) 04:37:02 437.465
CUBESAT XI-V 25 Aug 04:40:05 04:43:53 26° 61° (ENE) 04:47:42 437.345
Cosmos 2491 25 Aug 04:47:43 04:55:16 30° 58° (ENE) 05:02:48 435.465 / 435.565
MOZHAYETS 4 25 Aug 05:04:57 05:09:11 37° 263° (W) 05:13:26
SO-50 25 Aug 05:05:10 05:08:33 19° 349° (N) 05:11:52 436.795
Gurwin Techsat 1B 25 Aug 05:05:19 05:09:59 32° 299° (WNW) 05:14:37 435.225
KKS-1 25 Aug 05:21:09 05:25:07 30° 264° (W) 05:29:08 437.445
ITAMSAT 1 25 Aug 05:26:16 05:31:18 54° 293° (WNW) 05:36:20 435.822/435.867
BRITE-PL 25 Aug 05:39:19 05:41:38 12° 81° (E) 05:43:56 437.365/2234.400
RS-15 25 Aug 05:44:22 05:56:00 55° 334° (NNW) 06:08:07 29.354- 29.394
AO-7 25 Aug 05:54:13 06:02:37 88° 111° (ESE) 06:10:56 29.400- 29.500
STARS 25 Aug 06:05:51 06:09:20 22° 268° (W) 06:12:51 437.465
YUBILEINY 25 Aug 06:11:31 06:18:30 27° 78° (ENE) 06:25:28 435.215
CUBESAT XI-V 25 Aug 06:16:34 06:21:02 49° 261° (W) 06:25:34 437.345
NOAA 15 25 Aug 06:17:49 06:20:22 13° 85° (E) 06:22:55 137.62
NOAA 18 25 Aug 06:23:29 06:24:18 10° 82° (E) 06:25:07 137.9125
STRAND 1 25 Aug 06:26:12 06:30:10 23° 57° (ENE) 06:34:08 437.568
Cosmos 2504 25 Aug 06:27:01 06:28:38 11° 68° (ENE) 06:30:15 435.465 / 435.565
HORYU 2 25 Aug 06:28:32 06:32:51 48° 100° (E) 06:37:07 437.375
Cosmos 2491 25 Aug 06:44:22 06:53:14 82° 262° (W) 07:02:04 435.465 / 435.565
SO-50 25 Aug 06:47:13 06:50:40 19° 14° (NNE) 06:54:03 436.795
LilacSat-2 25 Aug 06:47:17 06:49:22 14° 89° (E) 06:51:26 437.200
PHONESAT 2.4 25 Aug 06:50:49 06:50:50 10° 186° (S) 06:50:52 2401.200-2431.200
GOMX 1 25 Aug 07:06:56 07:11:45 30° 92° (E) 07:16:24 467.674
ITAMSAT 1 25 Aug 07:07:53 07:09:43 12° 313° (NW) 07:11:35 435.822/435.867
BRITE-PL 25 Aug 07:15:28 07:21:08 65° 100° (E) 07:26:48 437.365/2234.400
AO-85 25 Aug 07:19:24 07:24:30 52° 124° (SE) 07:29:17 145.980
DOVE 4 25 Aug 07:28:44 07:32:45 22° 88° (E) 07:36:38 437.250
Cubesat XI-IV 25 Aug 07:32:14 07:37:16 41° 98° (E) 07:42:17 437.490
CUTE-I 25 Aug 07:44:58 07:50:11 52° 100° (E) 07:55:22 437.470
AO-7 25 Aug 07:47:37 07:54:35 31° 314° (NW) 08:01:30 29.400- 29.500
NOAA 15 25 Aug 07:55:42 08:01:03 77° 105° (ESE) 08:06:23 137.62
RS-15 25 Aug 07:59:59 08:11:33 45° 7° (N) 08:23:19 29.354- 29.394
NOAA 18 25 Aug 08:00:41 08:06:09 61° 102° (ESE) 08:11:33 137.9125
STRAND 1 25 Aug 08:03:51 08:08:56 68° 257° (WSW) 08:14:03 437.568
YUBILEINY 25 Aug 08:05:27 08:14:19 84° 281° (W) 08:23:14 435.215
HORYU 2 25 Aug 08:05:34 08:09:10 25° 299° (WNW) 08:12:46 437.375
Cosmos 2504 25 Aug 08:12:09 08:20:08 49° 90° (E) 08:27:36 435.465 / 435.565
LilacSat-2 25 Aug 08:20:19 08:24:05 61° 288° (WNW) 08:27:48 437.200
CANX-2 25 Aug 08:27:33 08:30:28 18° 90° (E) 08:33:22 2200.000
SO-50 25 Aug 08:27:44 08:32:16 45° 38° (NE) 08:36:39 436.795
CINEMA 3 25 Aug 08:30:31 08:34:13 23° 90° (E) 08:37:46 145.822/145.860
CUTE 1.7 + AOD 2 25 Aug 08:34:12 08:37:09 18° 90° (E) 08:40:07 437.475
Cosmos 2491 25 Aug 08:42:31 08:48:45 22° 286° (WNW) 08:54:59 435.465 / 435.565
GOMX 1 25 Aug 08:44:43 08:50:04 52° 292° (WNW) 08:55:14 467.674
PRISM 25 Aug 08:50:18 08:54:15 50° 69° (ENE) 08:58:17 437.425
AAUSAT CUBESAT 2 25 Aug 08:52:28 08:53:54 12° 86° (E) 08:55:21 437.432
UNISAT 6 25 Aug 08:52:42 08:52:58 10° 51° (NE) 08:53:14 437.425
BRITE-PL 25 Aug 08:54:31 08:59:13 28° 300° (WNW) 09:03:57 437.365/2234.400
COMPASS 1 25 Aug 08:56:44 08:59:19 16° 89° (E) 09:01:54 437.405
AO-85 25 Aug 09:00:18 09:05:08 40° 324° (NW) 09:09:40 145.980
HO-68 25 Aug 09:01:31 09:08:12 40° 96° (E) 09:14:51 435.675
DOVE 4 25 Aug 09:05:45 09:10:56 63° 289° (WNW) 09:15:50 437.250
CUBEBUG 2 25 Aug 09:08:04 09:10:44 16° 88° (E) 09:13:20 437.445
Cubesat XI-IV 25 Aug 09:12:27 09:17:20 37° 297° (WNW) 09:22:10 437.490
UWE-3 25 Aug 09:12:30 09:14:06 12° 85° (E) 09:15:41 435.000/436.395/437.385
CUSAT 1 25 Aug 09:23:27 09:26:51 16° 57° (ENE) 09:30:39 437.405
CUTE-I 25 Aug 09:25:26 09:30:01 30° 300° (WNW) 09:34:35 437.470
ANTELSAT 25 Aug 09:26:28 09:29:38 19° 58° (ENE) 09:32:46 437.575/2403.000
ZACube-1 25 Aug 09:33:13 09:35:04 13° 86° (E) 09:36:54 437.345
